This demonstration page uses our WeatherBlox Daily Observations layout. Learn more.

Hourly Observations for December 4, 2018

Temp ( °F °C ) Dew Point ( °F °C ) Humidity (%) Winds ( mph kmh ) Pressure ( in mb ) Visibility ( mi km ) Precip ( " mm )
12:15 am 00:15 Partly Cloudy 43 6 36 2 76 76 NW 13 20 29.91 1013 10 16.09344 0 0
12:35 am 00:35 Partly Cloudy 43 6 36 2 76 76 NW 16 26 29.91 1013 10 16.09344 0 0
12:55 am 00:55 Clear 43 6 36 2 76 76 NW 9 15 29.91 1013 10 16.09344 0 0
1:15 am 01:15 Clear 43 6 36 2 76 76 NW 15 24 29.91 1013 10 16.09344 0 0
1:35 am 01:35 Clear 43 6 36 2 76 76 NNW 13 20 29.94 1014 10 16.09344 0 0
1:55 am 01:55 Clear 41 5 34 1 76 76 NNW 12 19 29.94 1014 10 16.09344 0 0
2:15 am 02:15 Clear 43 6 32 0 66 66 NNW 23 37 29.94 1014 10 16.09344 0 0
2:35 am 02:35 Clear 41 5 32 0 70 70 N 14 22 29.97 1015 10 16.09344 0 0
2:55 am 02:55 Clear 41 5 32 0 70 70 NNW 14 22 29.97 1015 10 16.09344 0 0
3:15 am 03:15 Clear 41 5 32 0 70 70 NNW 14 22 29.97 1015 10 16.09344 0 0
3:35 am 03:35 Clear 39 4 32 0 75 75 NNW 15 24 29.97 1015 10 16.09344 0 0
3:55 am 03:55 Clear 39 4 32 0 75 75 NW 17 28 29.97 1015 10 16.09344 0 0
4:15 am 04:15 Partly Cloudy 39 4 32 0 75 75 NW 13 20 30 1016 10 16.09344 0 0
4:35 am 04:35 Mostly Cloudy 39 4 32 0 75 75 N 3 6 30 1016 10 16.09344 0 0
4:55 am 04:55 Cloudy 39 4 32 0 75 75 NNW 13 20 30 1016 10 16.09344 0 0
5:15 am 05:15 Cloudy 41 5 32 0 70 70 NW 10 17 30 1016 10 16.09344 0 0
5:35 am 05:35 Cloudy 39 4 32 0 75 75 NNW 9 15 30.03 1017 10 16.09344 0 0
5:55 am 05:55 Cloudy 39 4 32 0 75 75 NW 9 15 30.03 1017 10 16.09344 0 0
6:15 am 06:15 Cloudy 39 4 32 0 75 75 NW 12 19 30.03 1017 10 16.09344 0 0
6:35 am 06:35 Cloudy 41 5 32 0 70 70 NNW 7 11 30.03 1017 10 16.09344 0 0
6:55 am 06:55 Cloudy 41 5 32 0 70 70 NNW 9 15 30.06 1018 10 16.09344 0 0
7:15 am 07:15 Cloudy 41 5 32 0 70 70 NNW 8 13 30.06 1018 10 16.09344 0 0
7:35 am 07:35 Cloudy 41 5 32 0 70 70 N 13 20 30.06 1018 10 16.09344 0 0
7:55 am 07:55 Cloudy 41 5 32 0 70 70 N 12 19 30.06 1018 10 16.09344 0 0
8:15 am 08:15 Cloudy 41 5 32 0 70 70 N 6 9 30.06 1018 10 16.09344 0 0
8:35 am 08:35 Cloudy 41 5 32 0 70 70 N 10 17 30.09 1019 10 16.09344 0 0
8:55 am 08:55 Cloudy 41 5 32 0 70 70 N 13 20 30.09 1019 10 16.09344 0 0
9:15 am 09:15 Cloudy 41 5 32 0 70 70 NNW 17 28 30.09 1019 10 16.09344 0 0
9:35 am 09:35 Cloudy 41 5 32 0 70 70 N 17 28 30.09 1019 10 16.09344 0 0
9:55 am 09:55 Mostly Cloudy 41 5 30 -1 66 66 N 9 15 30.12 1020 10 16.09344 0 0
10:15 am 10:15 Cloudy 41 5 30 -1 66 66 N 13 20 30.12 1020 10 16.09344 0 0
10:35 am 10:35 Cloudy 41 5 30 -1 66 66 N 13 20 30.12 1020 10 16.09344 0 0
10:55 am 10:55 Cloudy 41 5 30 -1 66 66 N 13 20 30.12 1020 10 16.09344 0 0
11:15 am 11:15 Cloudy 41 5 30 -1 66 66 N 14 22 30.12 1020 10 16.09344 0 0
11:35 am 11:35 Cloudy 41 5 30 -1 66 66 NNW 16 26 30.09 1019 10 16.09344 0 0
11:55 am 11:55 Cloudy 41 5 30 -1 66 66 NNW 15 24 30.09 1019 10 16.09344 0 0
12:15 pm 12:15 Cloudy 41 5 28 -2 61 61 NNW 13 20 30.09 1019 10 16.09344 0 0
12:35 pm 12:35 Cloudy 41 5 28 -2 61 61 N 13 20 30.09 1019 10 16.09344 0 0
12:55 pm 12:55 Cloudy 41 5 28 -2 61 61 NNW 16 26 30.09 1019 10 16.09344 0 0
1:15 pm 13:15 Cloudy 41 5 28 -2 61 61 NNW 16 26 30.09 1019 10 16.09344 0 0
1:35 pm 13:35 Cloudy 41 5 28 -2 61 61 NNW 16 26 30.09 1019 10 16.09344 0 0
1:55 pm 13:55 Cloudy 41 5 28 -2 61 61 N 13 20 30.09 1019 10 16.09344 0 0
2:15 pm 14:15 Cloudy 39 4 28 -2 65 65 N 9 15 30.09 1019 10 16.09344 0 0
2:35 pm 14:35 Cloudy 39 4 28 -2 65 65 NNW 10 17 30.09 1019 10 16.09344 0 0
2:55 pm 14:55 Cloudy 39 4 28 -2 65 65 NNW 9 15 30.09 1019 10 16.09344 0 0
3:15 pm 15:15 Cloudy 39 4 28 -2 65 65 NW 10 17 30.09 1019 10 16.09344 0 0
3:35 pm 15:35 Cloudy 39 4 28 -2 65 65 NNW 12 19 30.09 1019 10 16.09344 0 0
3:55 pm 15:55 Cloudy 39 4 28 -2 65 65 NNW 8 13 30.09 1019 10 16.09344 0 0
4:15 pm 16:15 Cloudy 39 4 28 -2 65 65 NNW 9 15 30.09 1019 10 16.09344 0 0
4:35 pm 16:35 Cloudy 39 4 27 -3 61 61 NNW 9 15 30.09 1019 10 16.09344 0 0
4:55 pm 16:55 Cloudy 37 3 27 -3 65 65 NNW 7 11 30.09 1019 10 16.09344 0 0
5:15 pm 17:15 Cloudy 37 3 28 -2 70 70 NW 7 11 30.09 1019 10 16.09344 0 0
5:35 pm 17:35 Cloudy 37 3 28 -2 70 70 WNW 6 9 30.09 1019 10 16.09344 0 0
5:55 pm 17:55 Mostly Cloudy 36 2 28 -2 75 75 NW 7 11 30.09 1019 10 16.09344 0 0
6:15 pm 18:15 Partly Cloudy 34 1 28 -2 81 81 WNW 6 9 30.12 1020 10 16.09344 0 0
6:35 pm 18:35 Mostly Cloudy 34 1 28 -2 81 81 WNW 6 9 30.12 1020 10 16.09344 0 0
6:55 pm 18:55 Cloudy 36 2 28 -2 75 75 NW 6 9 30.12 1020 10 16.09344 0 0
7:15 pm 19:15 Cloudy 34 1 27 -3 75 75 NW 6 9 30.12 1020 10 16.09344 0 0
7:35 pm 19:35 Cloudy 34 1 27 -3 75 75 NW 5 7 30.12 1020 10 16.09344 0 0
7:55 pm 19:55 Mostly Cloudy 32 0 27 -3 80 80 WNW 6 9 30.12 1020 10 16.09344 0 0
8:15 pm 20:15 Mostly Cloudy 34 1 27 -3 75 75 NW 5 7 30.15 1021 10 16.09344 0 0
8:35 pm 20:35 Cloudy 34 1 27 -3 75 75 NW 5 7 30.15 1021 10 16.09344 0 0
8:55 pm 20:55 Cloudy 34 1 27 -3 75 75 N 6 9 30.12 1020 10 16.09344 0 0
9:15 pm 21:15 Partly Cloudy 34 1 25 -4 70 70 N 9 15 30.12 1020 10 16.09344 0 0
9:35 pm 21:35 Clear 32 0 27 -3 80 80 NNW 6 9 30.15 1021 10 16.09344 0 0
9:55 pm 21:55 Clear 34 1 27 -3 75 75 N 6 9 30.15 1021 10 16.09344 0 0
10:15 pm 22:15 Clear 34 1 25 -4 70 70 N 5 7 30.15 1021 10 16.09344 0 0
10:35 pm 22:35 Clear 32 0 25 -4 75 75 NNW 6 9 30.15 1021 10 16.09344 0 0
10:55 pm 22:55 Clear 32 0 25 -4 75 75 NNW 5 7 30.12 1020 10 16.09344 0 0
11:15 pm 23:15 Clear 30 -1 27 -3 86 86 NW 3 6 30.12 1020 10 16.09344 0 0
11:35 pm 23:35 Clear 30 -1 27 -3 86 86 Calm 30.12 1020 10 16.09344 0 0
11:55 pm 23:55 Clear 32 0 27 -3 80 80 N 5 7 30.12 1020 10 16.09344 0 0

Powered by AerisWeather